Starlink 4646

operational
NORAD ID: 53737 Int'l Des: 2022-107 Owner: SPXS Country: US Constellation: starlink
LEOCIRCULAR

About Starlink 4646

Description loading...

Live Position

Loading 3D Globe...

Upcoming Passes

Altitude History

Altitude vs Time

uPlot chart will show altitude changes over time

Two-Line Element Set

1 53737U 22107AP 25352.89844333 .00116263 00000-0 11411-2 0 9995
2 53737 53.1931 218.8271 0004228 193.0030 167.0878 15.65215342183070
Epoch: Dec 18, 2025 • Age: 12 hours

Current Status

Altitude 388.8 km
Velocity 7.68 km/s
Sub-Earth Point -51.56°S, 122.95°W
Launch Date Sep 5, 2022
Age 3.2 years
Type internet

Technical Details

Classification Payload
Mass 305.00 kg
Dry Mass 290.00 kg
Total Mass 305.00 kg
Length 0.20 m
Diameter 2.80 m
Span 9.00 m
Shape Box + pan
Manufacturer SPXS
Bus Type Starlink
Phase Status In Orbit
Owner/State SPXS/US

Large Constellations

Loading constellations...